When you browse on this site, cookies collect data to enhance your experience and personalize the content and advertising you see.
Visit our Privacy Policy to learn more. By continuing to use the site, you agree to this use of cookies and data.
  • In Hungary
  • List of Countries
  • For 7 days
  • Water Temperature
  • Satellite Maps
  • Weather Map
  • News
  • Weather Widgets
  • user-avatar
    Login

    Hourly Weather Failsworth

    Today, 20 March, Wednesday

    Time Temperature Precipitation Wind Pressure Humidity
    00:00 +8°C° 0 mm 2 mps 757 mmHg 95%
    01:00 +8°C° 0 mm 2 mps 757 mmHg 96%
    02:00 +8°C° 0 mm 2 mps 757 mmHg 96%
    03:00 +8°C° 0 mm 2 mps 757 mmHg 97%
    04:00 +8°C° 0 mm 2 mps 758 mmHg 97%
    05:00 +8°C° 0 mm 2 mps 758 mmHg 97%
    06:00 +8°C° 0 mm 2 mps 758 mmHg 97%
    07:00 +9°C° 0 mm 2 mps 758 mmHg 94%
    08:00 +9°C° 0 mm 2 mps 759 mmHg 91%
    09:00 +10°C° 0 mm 2 mps 759 mmHg 87%
    10:00 +13°C° 0 mm 2 mps 759 mmHg 83%
    11:00 +14°C° 0 mm 2 mps 759 mmHg 78%
    12:00 +14°C° 0 mm 3 mps 759 mmHg 73%
    13:00 +14°C° 0 mm 3 mps 759 mmHg 73%
    14:00 +16°C° 0 mm 3 mps 759 mmHg 72%
    15:00 +16°C° 0 mm 3 mps 759 mmHg 71%
    16:00 +16°C° 0 mm 3 mps 759 mmHg 75%
    17:00 +14°C° 0 mm 3 mps 759 mmHg 80%
    18:00 +13°C° 0 mm 3 mps 759 mmHg 84%
    19:00 +13°C° 0 mm 2 mps 759 mmHg 86%
    20:00 +12°C° 0 mm 2 mps 759 mmHg 89%
    21:00 +10°C° 0 mm 2 mps 759 mmHg 92%
    22:00 +10°C° 0 mm 2 mps 759 mmHg 92%
    23:00 +9°C° 0 mm 2 mps 759 mmHg 93%

    Tomorrow, 21 March, Thursday

    Time Temperature Precipitation Wind Pressure Humidity
    00:00 +9°C° 0 mm 2 mps 759 mmHg 93%
    01:00 +8°C° 0 mm 3 mps 759 mmHg 94%
    02:00 +8°C° 0 mm 3 mps 759 mmHg 95%
    03:00 +8°C° 0 mm 3 mps 758 mmHg 95%
    04:00 +8°C° 0 mm 3 mps 758 mmHg 96%
    05:00 +8°C° 0 mm 3 mps 758 mmHg 96%
    06:00 +8°C° 0 mm 3 mps 758 mmHg 97%
    07:00 +9°C° 0 mm 3 mps 759 mmHg 93%
    08:00 +10°C° 0 mm 3 mps 759 mmHg 90%
    09:00 +11°C° 0 mm 4 mps 759 mmHg 87%
    10:00 +11°C° 0 mm 4 mps 759 mmHg 84%
    11:00 +12°C° 0 mm 4 mps 759 mmHg 82%
    12:00 +12°C° 0 mm 4 mps 759 mmHg 80%
    13:00 +13°C° 0 mm 4 mps 758 mmHg 78%
    14:00 +13°C° 0 mm 4 mps 758 mmHg 76%
    15:00 +13°C° 0 mm 4 mps 758 mmHg 74%
    16:00 +13°C° 0 mm 4 mps 758 mmHg 76%
    17:00 +13°C° 0 mm 3 mps 758 mmHg 78%
    18:00 +12°C° 0 mm 3 mps 758 mmHg 80%
    19:00 +12°C° 0 mm 3 mps 758 mmHg 82%
    20:00 +11°C° 0 mm 3 mps 758 mmHg 84%
    21:00 +10°C° 0 mm 3 mps 758 mmHg 86%
    22:00 +10°C° 0 mm 3 mps 757 mmHg 88%
    23:00 +9°C° 0 mm 3 mps 757 mmHg 90%

    Day after tomorrow, 22 March, Friday

    Time Temperature Precipitation Wind Pressure Humidity
    00:00 +9°C° 0 mm 3 mps 757 mmHg 92%
    01:00 +8°C° 0 mm 4 mps 756 mmHg 92%
    02:00 +8°C° 0 mm 4 mps 755 mmHg 93%
    03:00 +8°C° 0 mm 4 mps 755 mmHg 93%
    04:00 +7°C° 0 mm 5 mps 755 mmHg 92%
    05:00 +7°C° 0 mm 5 mps 754 mmHg 92%
    06:00 +5°C° 0 mm 6 mps 754 mmHg 91%
    07:00 +7°C° 0 mm 6 mps 754 mmHg 87%
    08:00 +8°C° 0 mm 7 mps 753 mmHg 84%
    09:00 +9°C° 0 mm 7 mps 753 mmHg 80%
    10:00 +10°C° 0 mm 8 mps 752 mmHg 74%
    11:00 +12°C° 0 mm 8 mps 752 mmHg 68%
    12:00 +13°C° 0 mm 9 mps 751 mmHg 63%
    13:00 +13°C° 0 mm 9 mps 751 mmHg 62%
    14:00 +13°C° 0 mm 9 mps 751 mmHg 61%
    15:00 +13°C° 0 mm 9 mps 751 mmHg 60%
    16:00 +12°C° 0.4 mm 8 mps 752 mmHg 68%
    17:00 +10°C° 0.4 mm 7 mps 752 mmHg 77%
    18:00 +9°C° 0.4 mm 7 mps 753 mmHg 86%
    19:00 +8°C° 0 mm 6 mps 754 mmHg 83%
    20:00 +7°C° 0 mm 4 mps 755 mmHg 81%
    21:00 +7°C° 0 mm 3 mps 756 mmHg 78%
    22:00 +7°C° 0 mm 3 mps 757 mmHg 79%
    23:00 +5°C° 0 mm 3 mps 757 mmHg 79%

    23 March, Saturday

    Time Temperature Precipitation Wind Pressure Humidity
    00:00 +4°C° 0 mm 3 mps 758 mmHg 79%
    01:00 +4°C° 0 mm 3 mps 758 mmHg 77%
    02:00 +4°C° 0 mm 3 mps 759 mmHg 76%
    03:00 +4°C° 0 mm 2 mps 759 mmHg 74%
    04:00 +4°C° 0 mm 2 mps 760 mmHg 74%
    05:00 +5°C° 0 mm 1 mps 760 mmHg 75%
    06:00 +5°C° 0 mm 1 mps 761 mmHg 75%
    07:00 +6°C° 0 mm 1 mps 761 mmHg 70%
    08:00 +6°C° 0 mm 1 mps 761 mmHg 65%
    09:00 +7°C° 0 mm 1 mps 762 mmHg 61%
    10:00 +8°C° 0 mm 1 mps 762 mmHg 56%
    11:00 +9°C° 0 mm 1 mps 762 mmHg 52%
    12:00 +10°C° 0 mm 1 mps 762 mmHg 47%
    13:00 +10°C° 0 mm 1 mps 762 mmHg 47%
    14:00 +10°C° 0 mm 1 mps 761 mmHg 46%
    15:00 +10°C° 0 mm 2 mps 761 mmHg 46%
    16:00 +9°C° 0 mm 2 mps 761 mmHg 51%
    17:00 +8°C° 0 mm 2 mps 761 mmHg 56%
    18:00 +7°C° 0 mm 3 mps 761 mmHg 61%
    19:00 +6°C° 0 mm 2 mps 761 mmHg 62%
    20:00 +5°C° 0 mm 2 mps 761 mmHg 64%
    21:00 +6°C° 0 mm 1 mps 762 mmHg 66%
    22:00 +5°C° 0 mm 1 mps 762 mmHg 68%
    23:00 +5°C° 0 mm 1 mps 761 mmHg 69%

    24 March, Sunday

    Time Temperature Precipitation Wind Pressure Humidity
    00:00 +4°C° 0 mm 1 mps 761 mmHg 71%
    01:00 +4°C° 0 mm 1 mps 761 mmHg 73%
    02:00 +4°C° 0 mm 1 mps 761 mmHg 76%
    03:00 +3°C° 0 mm 1 mps 761 mmHg 78%
    04:00 +2°C° 0 mm 2 mps 761 mmHg 79%
    05:00 +2°C° 0 mm 2 mps 761 mmHg 81%
    06:00 +1°C° 0 mm 3 mps 761 mmHg 83%
    07:00 +3°C° 0 mm 4 mps 761 mmHg 78%
    08:00 +3°C° 0 mm 5 mps 761 mmHg 72%
    09:00 +4°C° 0 mm 6 mps 762 mmHg 67%
    10:00 +5°C° 0 mm 6 mps 761 mmHg 65%
    11:00 +6°C° 0 mm 7 mps 761 mmHg 64%
    12:00 +8°C° 0 mm 7 mps 761 mmHg 62%
    13:00 +8°C° 0 mm 7 mps 761 mmHg 63%
    14:00 +7°C° 0 mm 8 mps 761 mmHg 64%
    15:00 +7°C° 0 mm 8 mps 760 mmHg 65%
    16:00 +6°C° 0 mm 7 mps 760 mmHg 68%
    17:00 +6°C° 0 mm 7 mps 760 mmHg 71%
    18:00 +5°C° 0 mm 7 mps 760 mmHg 73%
    19:00 +5°C° 0 mm 6 mps 761 mmHg 75%
    20:00 +5°C° 0 mm 6 mps 761 mmHg 76%
    21:00 +4°C° 0 mm 6 mps 761 mmHg 77%
    22:00 +4°C° 0 mm 6 mps 761 mmHg 78%
    23:00 +5°C° 0 mm 5 mps 761 mmHg 80%

    25 March, Monday

    Time Temperature Precipitation Wind Pressure Humidity
    00:00 +5°C° 0 mm 5 mps 761 mmHg 81%
    01:00 +3°C° 0 mm 5 mps 761 mmHg 83%
    02:00 +4°C° 0 mm 4 mps 761 mmHg 86%
    03:00 +4°C° 0 mm 4 mps 761 mmHg 88%
    04:00 +4°C° 0 mm 4 mps 761 mmHg 89%
    05:00 +3°C° 0 mm 4 mps 761 mmHg 89%
    06:00 +3°C° 0 mm 4 mps 761 mmHg 90%
    07:00 +4°C° 0 mm 4 mps 762 mmHg 84%
    08:00 +6°C° 0 mm 5 mps 762 mmHg 79%
    09:00 +7°C° 0 mm 6 mps 762 mmHg 73%
    10:00 +8°C° 0 mm 6 mps 762 mmHg 70%
    11:00 +8°C° 0 mm 6 mps 762 mmHg 66%
    12:00 +9°C° 0 mm 5 mps 762 mmHg 63%
    13:00 +9°C° 0 mm 5 mps 762 mmHg 64%
    14:00 +9°C° 0 mm 5 mps 762 mmHg 65%
    15:00 +9°C° 0 mm 5 mps 762 mmHg 65%
    16:00 +8°C° 0 mm 4 mps 762 mmHg 67%
    17:00 +8°C° 0 mm 4 mps 762 mmHg 69%
    18:00 +9°C° 0 mm 3 mps 762 mmHg 71%
    19:00 +8°C° 0 mm 3 mps 763 mmHg 72%
    20:00 +7°C° 0 mm 3 mps 763 mmHg 73%
    21:00 +5°C° 0 mm 3 mps 764 mmHg 74%
    22:00 +4°C° 0 mm 3 mps 764 mmHg 72%
    23:00 +3°C° 0 mm 3 mps 765 mmHg 70%
    Show more